Weather in Paama

Vanuatu     16°28′34″S   168°14′11″E
temp.,
°C
wind,
m/s
gust,
m/s
humid.,
%
clouds,
%
prec.,
mm/h
press.,
hPa
HPBL,
m
26 july, mon
mon2623:00+27e238218 1.8 1014299
02:00+27ene238119 0.3 1012396
05:00+27e228113 0.3 1012451
08:00+27ese228175 0.5 1014298
11:00+27sse4478100 1.9 1014533
14:00+27se447610 0.2 1012679
17:00+27se567824 0.6 1013728
20:00+27se788037 0.3 1015842
27 july, tue
tue2723:00+26se897993 0.9 1014878
02:00+26se887997 0.5 1013934
05:00+26se9108271 3.4 1014838
08:00+26ese10117997 2.7 10151025
11:00+26ese10118199 6.1 1015978
14:00+26ese10108295 3.1 1013941
17:00+26se101182100 7.6 10141027
20:00+25se111282100 2.1 10151036
28 july, wed
wed2823:00+26se12127986 3.5 10151029
02:00+26se101179100 0.8 1014996
05:00+26se101079100 2.5 10141027
08:00+26se10117889 3.9 10161048
11:00+26se10107862 6.2 10151014
14:00+26se10107792 1.2 10121046
17:00+26ese101178100 1.9 10131103
20:00+26se10117768 0.5 10151000
29 july, thu
thu2923:00+26se10107884 1.1 10141042
02:00+26se997892 1.0 10131039
05:00+26se997695 1.4 10131040
08:00+26ese997778 0.4 10151011
11:00+26ese897689 0.9 10141038
14:00+25e678034 1.4 1012721
17:00+26ese668014 2.4 1012682
20:00+26ese667814 0.1 1014726
30 july, fri
fri3023:00+26e557831 0.1 1013740
02:00+26ese347832 0.3 1012638
05:00+26ese337729 0.5 1012650
08:00+26ese337724 0.0 1014636
11:00+26se327722 0.1 1013573
14:00+26sse227792 0.1 1011429
17:00+26s337797 0.1 1011592
20:00+26s557954 0.3 1013694